Time,TemperatureF,DewpointF,PressureIn,WindDirection,WindDirectionDegrees,WindSpeedMPH,WindSpeedGustMPH,Humidity,HourlyPrecipIn,Conditions,Clouds,dailyrainin,SoftwareType,DateUTC
2013-03-04 00:09:00,22.2,12.0,29.95,WNW,300,6.0,-999.0,66,-99.99,,,0.00,weatherlink.com 1.10,2013-03-04 05:09:00,
2013-03-04 00:24:00,22.0,12.0,29.96,NNW,338,7.0,-999.0,66,-99.99,,,0.00,weatherlink.com 1.10,2013-03-04 05:24:00,
2013-03-04 00:39:00,21.6,12.0,29.97,NNW,346,1.0,-999.0,67,-99.99,,,0.00,weatherlink.com 1.10,2013-03-04 05:39:00,
2013-03-04 00:54:00,21.3,12.0,29.97,North,355,2.0,-999.0,67,-99.99,,,0.00,weatherlink.com 1.10,2013-03-04 05:54:00,
2013-03-04 01:09:00,20.8,12.0,29.98,North,355,0.0,-999.0,69,-99.99,,,0.00,weatherlink.com 1.10,2013-03-04 06:09:00,
2013-03-04 01:24:00,20.2,12.0,29.99,North,355,0.0,-999.0,69,-99.99,,,0.00,weatherlink.com 1.10,2013-03-04 06:24:00,
2013-03-04 01:39:00,20.0,12.0,29.99,NNE,18,1.0,-999.0,71,-99.99,,,0.00,weatherlink.com 1.10,2013-03-04 06:39:00,
2013-03-04 01:54:00,19.9,11.0,29.99,North,355,6.0,-999.0,69,-99.99,,,0.00,weatherlink.com 1.10,2013-03-04 06:54:00,
2013-03-04 02:09:00,20.7,12.0,30.00,NNW,346,13.0,-999.0,68,-99.99,,,0.00,weatherlink.com 1.10,2013-03-04 07:09:00,
2013-03-04 02:24:00,21.0,12.0,30.00,WNW,288,4.0,-999.0,67,-99.99,,,0.00,weatherlink.com 1.10,2013-03-04 07:24:00,
2013-03-04 02:39:00,21.0,12.0,30.00,NW,325,7.0,-999.0,67,-99.99,,,0.00,weatherlink.com 1.10,2013-03-04 07:39:00,
2013-03-04 02:54:00,20.9,11.0,30.00,NNW,340,5.0,-999.0,67,-99.99,,,0.00,weatherlink.com 1.10,2013-03-04 07:54:00,
2013-03-04 03:09:00,20.6,12.0,30.01,North,355,8.0,-999.0,68,-99.99,,,0.00,weatherlink.com 1.10,2013-03-04 08:09:00,
2013-03-04 03:24:00,20.6,12.0,30.00,NNW,331,5.0,-999.0,68,-99.99,,,0.00,weatherlink.com 1.10,2013-03-04 08:24:00,
2013-03-04 03:39:00,20.4,12.0,30.01,NNW,327,6.0,-999.0,69,-99.99,,,0.00,weatherlink.com 1.10,2013-03-04 08:39:00,
2013-03-04 03:54:00,20.1,12.0,30.01,NNW,339,5.0,-999.0,70,-99.99,,,0.00,weatherlink.com 1.10,2013-03-04 08:54:00,
2013-03-04 04:09:00,20.3,12.0,30.02,North,350,8.0,-999.0,69,-99.99,,,0.00,weatherlink.com 1.10,2013-03-04 09:09:00,
2013-03-04 04:24:00,20.3,12.0,30.02,NNW,343,9.0,-999.0,69,-99.99,,,0.00,weatherlink.com 1.10,2013-03-04 09:24:00,
2013-03-04 04:39:00,20.4,12.0,30.03,NNW,346,4.0,-999.0,69,-99.99,,,0.00,weatherlink.com 1.10,2013-03-04 09:39:00,
2013-03-04 04:54:00,20.7,12.0,30.04,NNW,339,5.0,-999.0,68,-99.99,,,0.00,weatherlink.com 1.10,2013-03-04 09:54:00,
2013-03-04 05:09:00,20.9,11.0,30.04,NNW,339,4.0,-999.0,67,-99.99,,,0.00,weatherlink.com 1.10,2013-03-04 10:09:00,
2013-03-04 05:24:00,20.5,11.0,30.05,NNW,335,0.0,-999.0,67,-99.99,,,0.00,weatherlink.com 1.10,2013-03-04 10:24:00,
2013-03-04 05:39:00,20.6,11.0,30.05,NNW,344,9.0,-999.0,67,-99.99,,,0.00,weatherlink.com 1.10,2013-03-04 10:39:00,
2013-03-04 05:54:00,21.3,12.0,30.06,NW,311,1.0,-999.0,66,-99.99,,,0.00,weatherlink.com 1.10,2013-03-04 10:54:00,
2013-03-04 06:09:00,21.1,11.0,30.07,NNW,330,4.0,-999.0,66,-99.99,,,0.00,weatherlink.com 1.10,2013-03-04 11:09:00,
2013-03-04 06:24:00,21.2,12.0,30.07,North,355,14.0,-999.0,67,-99.99,,,0.00,weatherlink.com 1.10,2013-03-04 11:24:00,
2013-03-04 06:39:00,21.9,12.0,30.06,NW,318,10.0,-999.0,65,-99.99,,,0.00,weatherlink.com 1.10,2013-03-04 11:39:00,
2013-03-04 06:54:00,22.2,12.0,30.07,NNW,330,12.0,-999.0,64,-99.99,,,0.00,weatherlink.com 1.10,2013-03-04 11:54:00,
2013-03-04 07:09:00,22.5,11.0,30.07,NNW,329,7.0,-999.0,62,-99.99,,,0.00,weatherlink.com 1.10,2013-03-04 12:09:00,
2013-03-04 07:24:00,22.2,11.0,30.07,NNW,335,8.0,-999.0,63,-99.99,,,0.00,weatherlink.com 1.10,2013-03-04 12:24:00,
2013-03-04 07:39:00,22.2,11.0,30.07,North,360,5.0,-999.0,62,-99.99,,,0.00,weatherlink.com 1.10,2013-03-04 12:39:00,
2013-03-04 07:54:00,22.5,11.0,30.07,NNW,337,1.0,-999.0,61,-99.99,,,0.00,weatherlink.com 1.10,2013-03-04 12:54:00,
2013-03-04 08:09:00,22.7,11.0,30.08,NNW,338,1.0,-999.0,60,-99.99,,,0.00,weatherlink.com 1.10,2013-03-04 13:09:00,
2013-03-04 08:24:00,23.1,11.0,30.09,NNW,338,0.0,-999.0,60,-99.99,,,0.00,weatherlink.com 1.10,2013-03-04 13:24:00,
2013-03-04 08:39:00,23.9,12.0,30.10,SSW,208,0.0,-999.0,61,-99.99,,,0.00,weatherlink.com 1.10,2013-03-04 13:39:00,
2013-03-04 08:54:00,24.5,13.0,30.11,SSW,208,0.0,-999.0,61,-99.99,,,0.00,weatherlink.com 1.10,2013-03-04 13:54:00,
2013-03-04 09:09:00,25.0,11.0,30.11,SSW,208,0.0,-999.0,56,-99.99,,,0.00,weatherlink.com 1.10,2013-03-04 14:09:00,
2013-03-04 09:24:00,26.2,12.0,30.11,SSW,209,0.0,-999.0,55,-99.99,,,0.00,weatherlink.com 1.10,2013-03-04 14:24:00,
2013-03-04 09:39:00,28.0,14.0,30.11,SSE,164,0.0,-999.0,57,-99.99,,,0.00,weatherlink.com 1.10,2013-03-04 14:39:00,
2013-03-04 09:54:00,29.3,14.0,30.11,WNW,294,0.0,-999.0,53,-99.99,,,0.00,weatherlink.com 1.10,2013-03-04 14:54:00,
2013-03-04 10:09:00,30.8,14.0,30.11,WNW,298,4.0,-999.0,51,-99.99,,,0.00,weatherlink.com 1.10,2013-03-04 15:09:00,
2013-03-04 10:24:00,32.1,16.0,30.11,SSW,213,3.0,-999.0,52,-99.99,,,0.00,weatherlink.com 1.10,2013-03-04 15:24:00,
2013-03-04 10:39:00,33.4,15.0,30.11,South,188,1.0,-999.0,48,-99.99,,,0.00,weatherlink.com 1.10,2013-03-04 15:39:00,
2013-03-04 10:54:00,34.4,16.0,30.11,South,189,1.0,-999.0,48,-99.99,,,0.00,weatherlink.com 1.10,2013-03-04 15:54:00,
2013-03-04 11:09:00,36.2,19.0,30.11,SSW,213,0.0,-999.0,49,-99.99,,,0.00,weatherlink.com 1.10,2013-03-04 16:09:00,
2013-03-04 11:24:00,38.3,19.0,30.12,SW,224,1.0,-999.0,45,-99.99,,,0.00,weatherlink.com 1.10,2013-03-04 16:24:00,
2013-03-04 11:39:00,39.6,20.0,30.12,South,188,2.0,-999.0,46,-99.99,,,0.00,weatherlink.com 1.10,2013-03-04 16:39:00,
2013-03-04 11:54:00,40.6,20.0,30.12,SSE,167,0.0,-999.0,43,-99.99,,,0.00,weatherlink.com 1.10,2013-03-04 16:54:00,
2013-03-04 12:09:00,41.9,18.0,30.12,SW,215,2.0,-999.0,39,-99.99,,,0.00,weatherlink.com 1.10,2013-03-04 17:09:00,
2013-03-04 12:24:00,42.2,18.0,30.11,South,183,0.0,-999.0,38,-99.99,,,0.00,weatherlink.com 1.10,2013-03-04 17:24:00,
2013-03-04 12:39:00,43.4,20.0,30.11,SSW,198,2.0,-999.0,39,-99.99,,,0.00,weatherlink.com 1.10,2013-03-04 17:39:00,
2013-03-04 12:54:00,44.3,19.0,30.10,SSW,209,2.0,-999.0,37,-99.99,,,0.00,weatherlink.com 1.10,2013-03-04 17:54:00,
2013-03-04 13:09:00,45.3,20.0,30.09,South,189,4.0,-999.0,36,-99.99,,,0.00,weatherlink.com 1.10,2013-03-04 18:09:00,
2013-03-04 13:24:00,45.4,21.0,30.08,SSE,151,1.0,-999.0,38,-99.99,,,0.00,weatherlink.com 1.10,2013-03-04 18:24:00,
2013-03-04 13:39:00,45.6,21.0,30.07,WSW,242,0.0,-999.0,37,-99.99,,,0.00,weatherlink.com 1.10,2013-03-04 18:39:00,
2013-03-04 13:54:00,46.4,21.0,30.07,ESE,112,6.0,-999.0,37,-99.99,,,0.00,weatherlink.com 1.10,2013-03-04 18:54:00,
2013-03-04 14:09:00,47.0,22.0,30.07,SW,232,3.0,-999.0,37,-99.99,,,0.00,weatherlink.com 1.10,2013-03-04 19:09:00,
2013-03-04 14:24:00,47.1,22.0,30.07,SSE,163,2.0,-999.0,37,-99.99,,,0.00,weatherlink.com 1.10,2013-03-04 19:24:00,
2013-03-04 14:39:00,46.5,21.0,30.06,NW,323,4.0,-999.0,37,-99.99,,,0.00,weatherlink.com 1.10,2013-03-04 19:39:00,
2013-03-04 14:54:00,47.4,21.0,30.06,South,186,3.0,-999.0,35,-99.99,,,0.00,weatherlink.com 1.10,2013-03-04 19:54:00,
2013-03-04 15:09:00,47.5,21.0,30.05,SE,132,1.0,-999.0,35,-99.99,,,0.00,weatherlink.com 1.10,2013-03-04 20:09:00,
2013-03-04 15:24:00,47.6,21.0,30.05,SW,215,3.0,-999.0,35,-99.99,,,0.00,weatherlink.com 1.10,2013-03-04 20:24:00,
2013-03-04 15:39:00,46.7,21.0,30.05,SW,233,2.0,-999.0,36,-99.99,,,0.00,weatherlink.com 1.10,2013-03-04 20:39:00,
2013-03-04 15:54:00,46.4,21.0,30.06,WSW,238,1.0,-999.0,36,-99.99,,,0.00,weatherlink.com 1.10,2013-03-04 20:54:00,
2013-03-04 16:09:00,45.1,21.0,30.05,SSE,166,5.0,-999.0,38,-99.99,,,0.00,weatherlink.com 1.10,2013-03-04 21:09:00,
2013-03-04 16:24:00,44.7,22.0,30.06,SSW,192,0.0,-999.0,40,-99.99,,,0.00,weatherlink.com 1.10,2013-03-04 21:24:00,
2013-03-04 16:39:00,44.2,22.0,30.06,SSE,162,6.0,-999.0,41,-99.99,,,0.00,weatherlink.com 1.10,2013-03-04 21:39:00,
2013-03-04 16:54:00,44.1,22.0,30.06,South,181,0.0,-999.0,42,-99.99,,,0.00,weatherlink.com 1.10,2013-03-04 21:54:00,
2013-03-04 17:09:00,44.5,22.0,30.06,South,185,2.0,-999.0,41,-99.99,,,0.00,weatherlink.com 1.10,2013-03-04 22:09:00,
2013-03-04 17:24:00,44.5,22.0,30.06,South,185,2.0,-999.0,41,-99.99,,,0.00,weatherlink.com 1.10,2013-03-04 22:24:00,
2013-03-04 17:39:00,43.6,22.0,30.06,South,172,0.0,-999.0,43,-99.99,,,0.00,weatherlink.com 1.10,2013-03-04 22:39:00,
2013-03-04 17:54:00,41.8,23.0,30.06,SSE,166,0.0,-999.0,47,-99.99,,,0.00,weatherlink.com 1.10,2013-03-04 22:54:00,
2013-03-04 18:09:00,40.0,23.0,30.07,SSE,159,4.0,-999.0,50,-99.99,,,0.00,weatherlink.com 1.10,2013-03-04 23:09:00,
2013-03-04 18:24:00,38.7,22.0,30.07,SE,126,5.0,-999.0,52,-99.99,,,0.00,weatherlink.com 1.10,2013-03-04 23:24:00,
2013-03-04 18:39:00,38.2,21.0,30.07,SE,128,0.0,-999.0,51,-99.99,,,0.00,weatherlink.com 1.10,2013-03-04 23:39:00,
2013-03-04 18:54:00,38.4,22.0,30.07,SE,131,0.0,-999.0,52,-99.99,,,0.00,weatherlink.com 1.10,2013-03-04 23:54:00,
2013-03-04 19:09:00,38.2,22.0,30.07,SE,132,2.0,-999.0,53,-99.99,,,0.00,weatherlink.com 1.10,2013-03-05 00:09:00,
2013-03-04 19:24:00,38.5,22.0,30.07,SE,141,0.0,-999.0,52,-99.99,,,0.00,weatherlink.com 1.10,2013-03-05 00:24:00,
2013-03-04 19:39:00,38.3,23.0,30.07,SSE,148,1.0,-999.0,54,-99.99,,,0.00,weatherlink.com 1.10,2013-03-05 00:39:00,
2013-03-04 19:54:00,37.6,23.0,30.07,SE,146,1.0,-999.0,56,-99.99,,,0.00,weatherlink.com 1.10,2013-03-05 00:54:00,
2013-03-04 20:09:00,37.0,22.0,30.07,SE,143,0.0,-999.0,56,-99.99,,,0.00,weatherlink.com 1.10,2013-03-05 01:09:00,
2013-03-04 20:24:00,36.6,23.0,30.06,SE,141,1.0,-999.0,58,-99.99,,,0.00,weatherlink.com 1.10,2013-03-05 01:24:00,
2013-03-04 20:39:00,35.9,23.0,30.06,SE,138,4.0,-999.0,60,-99.99,,,0.00,weatherlink.com 1.10,2013-03-05 01:39:00,
2013-03-04 20:54:00,35.9,23.0,30.06,SSE,148,4.0,-999.0,61,-99.99,,,0.00,weatherlink.com 1.10,2013-03-05 01:54:00,
2013-03-04 21:09:00,35.5,24.0,30.07,SSE,157,4.0,-999.0,64,-99.99,,,0.00,weatherlink.com 1.10,2013-03-05 02:09:00,
2013-03-04 21:25:00,35.2,24.0,30.07,SSE,153,4.0,-999.0,65,-99.99,,,0.00,weatherlink.com 1.10,2013-03-05 02:25:00,
2013-03-04 21:39:00,35.2,24.0,30.07,SE,145,2.0,-999.0,65,-99.99,,,0.00,weatherlink.com 1.10,2013-03-05 02:39:00,
2013-03-04 21:54:00,35.5,25.0,30.08,SE,144,1.0,-999.0,65,-99.99,,,0.00,weatherlink.com 1.10,2013-03-05 02:54:00,
2013-03-04 22:09:00,35.8,25.0,30.07,SE,134,2.0,-999.0,64,-99.99,,,0.00,weatherlink.com 1.10,2013-03-05 03:09:00,
2013-03-04 22:24:00,35.9,25.0,30.07,ESE,111,4.0,-999.0,65,-99.99,,,0.00,weatherlink.com 1.10,2013-03-05 03:24:00,
2013-03-04 22:39:00,36.3,26.0,30.07,ESE,112,0.0,-999.0,66,-99.99,,,0.00,weatherlink.com 1.10,2013-03-05 03:39:00,
2013-03-04 22:54:00,37.4,26.0,30.07,South,174,2.0,-999.0,63,-99.99,,,0.00,weatherlink.com 1.10,2013-03-05 03:54:00,
2013-03-04 23:09:00,37.3,26.0,30.06,ESE,115,1.0,-999.0,63,-99.99,,,0.00,weatherlink.com 1.10,2013-03-05 04:09:00,
2013-03-04 23:24:00,37.0,26.0,30.06,East,94,4.0,-999.0,64,-99.99,,,0.00,weatherlink.com 1.10,2013-03-05 04:24:00,
2013-03-04 23:39:00,37.5,25.0,30.05,SE,139,0.0,-999.0,61,-99.99,,,0.00,weatherlink.com 1.10,2013-03-05 04:39:00,
2013-03-04 23:54:00,37.5,25.0,30.05,South,169,0.0,-999.0,62,-99.99,,,0.00,weatherlink.com 1.10,2013-03-05 04:54:00,